TimeEDT,TemperatureF,Dew PointF,Humidity,Sea Level PressureIn,VisibilityMPH,Wind Direction,Wind SpeedMPH,Gust SpeedMPH,PrecipitationIn,Events,Conditions,WindDirDegrees,DateUTC
12:15 AM,73.4,73.4,100,30.00,1.2,SE,4.6,-,0.07,,Mostly Cloudy,140,2013-07-29 04:15:00
12:35 AM,73.4,71.6,94,29.99,3.0,SE,3.5,-,0.08,,Scattered Clouds,140,2013-07-29 04:35:00
12:55 AM,73.4,73.4,100,29.99,7.0,South,5.8,-,0.08,,Clear,180,2013-07-29 04:55:00
1:15 AM,75.2,73.4,94,29.99,3.0,SW,3.5,-,0.04,,Mostly Cloudy,220,2013-07-29 05:15:00
1:35 AM,73.4,71.6,94,30.01,10.0,Calm,Calm,-,0.04,,Scattered Clouds,0,2013-07-29 05:35:00
1:55 AM,71.6,71.6,100,30.00,5.0,Calm,Calm,-,0.04,,Clear,0,2013-07-29 05:55:00
2:15 AM,71.6,71.6,100,30.01,10.0,Calm,Calm,-,N/A,,Clear,0,2013-07-29 06:15:00
2:35 AM,73.4,71.6,94,30.00,10.0,WSW,4.6,-,N/A,,Clear,240,2013-07-29 06:35:00
2:55 AM,73.4,71.6,94,30.00,7.0,Calm,Calm,-,N/A,,Clear,0,2013-07-29 06:55:00
3:15 AM,73.4,71.6,94,29.99,7.0,Calm,Calm,-,N/A,,Clear,0,2013-07-29 07:15:00
3:55 AM,73.4,71.6,94,30.01,4.0,Calm,Calm,-,N/A,,Scattered Clouds,0,2013-07-29 07:55:00
4:15 AM,73.4,71.6,94,30.01,4.0,WNW,3.5,-,N/A,,Scattered Clouds,290,2013-07-29 08:15:00
4:35 AM,73.4,71.6,94,30.01,4.0,WNW,5.8,-,N/A,,Mostly Cloudy,290,2013-07-29 08:35:00
4:55 AM,73.4,71.6,94,30.01,7.0,West,3.5,-,0.01,,Overcast,280,2013-07-29 08:55:00
5:15 AM,73.4,71.6,94,30.02,3.0,WNW,3.5,-,N/A,,Overcast,290,2013-07-29 09:15:00
5:35 AM,73.4,71.6,94,30.02,4.0,Calm,Calm,-,0.01,,Mostly Cloudy,0,2013-07-29 09:35:00
5:55 AM,73.4,71.6,94,30.03,5.0,Calm,Calm,-,0.01,,Scattered Clouds,0,2013-07-29 09:55:00
6:15 AM,73.4,71.6,94,30.03,2.5,Calm,Calm,-,N/A,,Scattered Clouds,0,2013-07-29 10:15:00
6:35 AM,73.4,71.6,94,30.04,1.2,Calm,Calm,-,N/A,,Unknown,0,2013-07-29 10:35:00
6:55 AM,73.4,71.6,94,30.04,1.2,Calm,Calm,-,N/A,,Mostly Cloudy,0,2013-07-29 10:55:00
7:15 AM,73.4,71.6,94,30.05,3.0,Calm,Calm,-,N/A,,Scattered Clouds,0,2013-07-29 11:15:00
7:35 AM,73.4,71.6,94,30.06,4.0,NW,3.5,-,N/A,,Scattered Clouds,320,2013-07-29 11:35:00
7:55 AM,73.4,73.4,100,30.06,3.0,NNW,3.5,-,N/A,,Mostly Cloudy,330,2013-07-29 11:55:00
8:15 AM,73.4,71.6,94,30.07,7.0,North,3.5,-,N/A,,Scattered Clouds,10,2013-07-29 12:15:00
8:35 AM,73.4,71.6,94,30.07,7.0,NNE,3.5,-,N/A,,Clear,30,2013-07-29 12:35:00
8:55 AM,71.6,69.8,94,30.08,10.0,NNE,5.8,-,N/A,,Scattered Clouds,20,2013-07-29 12:55:00
9:15 AM,73.4,71.6,94,30.08,10.0,Calm,Calm,-,N/A,,Scattered Clouds,0,2013-07-29 13:15:00
9:35 AM,73.4,69.8,88,30.09,10.0,NNE,5.8,-,N/A,,Clear,30,2013-07-29 13:35:00
9:55 AM,75.2,68.0,78,30.09,10.0,NNE,5.8,-,N/A,,Scattered Clouds,20,2013-07-29 13:55:00
10:15 AM,75.2,68.0,78,30.10,10.0,North,8.1,-,N/A,,Mostly Cloudy,360,2013-07-29 14:15:00
10:35 AM,75.2,68.0,78,30.11,10.0,North,6.9,-,N/A,,Overcast,360,2013-07-29 14:35:00
10:55 AM,77.0,64.4,65,30.11,10.0,NNE,8.1,16.1,N/A,,Mostly Cloudy,20,2013-07-29 14:55:00
11:15 AM,80.6,66.2,61,30.12,10.0,North,5.8,-,N/A,,Mostly Cloudy,360,2013-07-29 15:15:00
11:35 AM,77.0,64.4,65,30.12,10.0,North,6.9,-,N/A,,Overcast,360,2013-07-29 15:35:00
11:55 AM,80.6,64.4,58,30.12,10.0,NNE,4.6,-,N/A,,Scattered Clouds,20,2013-07-29 15:55:00
12:15 PM,80.6,62.6,54,30.12,10.0,NE,3.5,-,N/A,,Clear,40,2013-07-29 16:15:00
12:35 PM,82.4,64.4,54,30.12,10.0,Calm,Calm,-,N/A,,Clear,0,2013-07-29 16:35:00
12:55 PM,82.4,64.4,54,30.12,10.0,Calm,Calm,-,N/A,,Clear,0,2013-07-29 16:55:00
1:15 PM,82.4,62.6,51,30.11,10.0,NE,4.6,-,N/A,,Clear,40,2013-07-29 17:15:00
1:35 PM,84.2,64.4,51,30.11,10.0,NNE,3.5,-,N/A,,Clear,20,2013-07-29 17:35:00
1:55 PM,84.2,62.6,48,30.11,10.0,NNW,3.5,-,N/A,,Clear,330,2013-07-29 17:55:00
2:15 PM,84.2,62.6,48,30.10,10.0,Calm,Calm,-,N/A,,Clear,0,2013-07-29 18:15:00
2:35 PM,84.2,60.8,45,30.10,10.0,Calm,Calm,-,N/A,,Clear,0,2013-07-29 18:35:00
2:55 PM,84.2,62.6,48,30.09,10.0,Calm,Calm,-,N/A,,Clear,0,2013-07-29 18:55:00
3:15 PM,84.2,62.6,48,30.09,10.0,NE,3.5,-,N/A,,Clear,40,2013-07-29 19:15:00
3:35 PM,86.0,64.4,48,30.08,10.0,Calm,Calm,-,N/A,,Clear,0,2013-07-29 19:35:00
3:55 PM,86.0,66.2,51,30.08,10.0,Calm,Calm,-,N/A,,Clear,0,2013-07-29 19:55:00
4:15 PM,84.2,64.4,51,30.08,10.0,Calm,Calm,-,N/A,,Clear,0,2013-07-29 20:15:00
4:35 PM,86.0,64.4,48,30.09,10.0,Calm,Calm,-,N/A,,Clear,0,2013-07-29 20:35:00
4:55 PM,84.2,64.4,51,30.09,10.0,SSE,5.8,-,N/A,,Clear,160,2013-07-29 20:55:00
5:15 PM,84.2,64.4,51,30.10,10.0,South,3.5,-,N/A,,Clear,180,2013-07-29 21:15:00
5:35 PM,84.2,62.6,48,30.11,10.0,SW,4.6,-,N/A,,Clear,230,2013-07-29 21:35:00
5:55 PM,84.2,62.6,48,30.11,10.0,WSW,4.6,-,N/A,,Clear,240,2013-07-29 21:55:00
6:15 PM,84.2,62.6,48,30.11,10.0,Calm,Calm,-,N/A,,Clear,0,2013-07-29 22:15:00
6:35 PM,84.2,64.4,51,30.11,10.0,South,3.5,-,N/A,,Clear,190,2013-07-29 22:35:00
6:55 PM,82.4,64.4,54,30.10,10.0,Calm,Calm,-,N/A,,Clear,0,2013-07-29 22:55:00
7:15 PM,82.4,64.4,54,30.11,10.0,Calm,Calm,-,N/A,,Clear,0,2013-07-29 23:15:00
7:35 PM,80.6,66.2,61,30.11,10.0,Calm,Calm,-,N/A,,Clear,0,2013-07-29 23:35:00
7:55 PM,78.8,68.0,69,30.12,10.0,Calm,Calm,-,N/A,,Clear,0,2013-07-29 23:55:00
8:15 PM,75.2,69.8,83,30.13,10.0,Calm,Calm,-,N/A,,Clear,0,2013-07-30 00:15:00
8:35 PM,73.4,69.8,88,30.13,10.0,Calm,Calm,-,N/A,,Clear,0,2013-07-30 00:35:00
8:55 PM,73.4,69.8,88,30.14,10.0,Calm,Calm,-,N/A,,Clear,0,2013-07-30 00:55:00
9:15 PM,73.4,69.8,88,30.15,10.0,Calm,Calm,-,N/A,,Clear,0,2013-07-30 01:15:00
9:35 PM,71.6,69.8,94,30.15,10.0,Calm,Calm,-,N/A,,Clear,0,2013-07-30 01:35:00
9:55 PM,71.6,69.8,94,30.16,10.0,Calm,Calm,-,N/A,,Clear,0,2013-07-30 01:55:00
10:15 PM,71.6,69.8,94,30.16,10.0,Calm,Calm,-,N/A,,Clear,0,2013-07-30 02:15:00
10:35 PM,71.6,69.8,94,30.16,10.0,NNE,3.5,-,N/A,,Clear,20,2013-07-30 02:35:00
10:55 PM,71.6,69.8,94,30.16,10.0,Calm,Calm,-,N/A,,Clear,0,2013-07-30 02:55:00
11:15 PM,71.6,69.8,94,30.16,10.0,Calm,Calm,-,N/A,,Scattered Clouds,0,2013-07-30 03:15:00
11:35 PM,71.6,69.8,94,30.17,10.0,Calm,Calm,-,N/A,,Mostly Cloudy,0,2013-07-30 03:35:00
11:55 PM,71.6,69.8,94,30.17,10.0,Calm,Calm,-,N/A,,Mostly Cloudy,0,2013-07-30 03:55:00